This is the latest recevied weather packets stored in our database for station/object AB1AU. If no packets are shown the sender has not sent any weather packets the latest 10 day(s).
| Time | Temp. | Humidity | Pressure | Rain* | Wind** | Luminosity | Snow |
|---|---|---|---|---|---|---|---|
| 1777250091 | 12.78° C | 49% | 1022.2 hPa | 0 mm | - | 0 W/m² | - |
| 1777249789 | 12.78° C | 48% | 1022.3 hPa | 0 mm | - | 0 W/m² | - |
| 1777249483 | 13.33° C | 48% | 1022.3 hPa | 0 mm | - | 0 W/m² | - |
| 1777249181 | 13.33° C | 48% | 1022.1 hPa | 0 mm | - | 0 W/m² | - |
| 1777248878 | 13.33° C | 47% | 1022 hPa | 0 mm | - | 0 W/m² | - |
| 1777248574 | 13.89° C | 47% | 1021.9 hPa | 0 mm | - | 0 W/m² | - |
| 1777248271 | 13.89° C | 46% | 1021.7 hPa | 0 mm | - | 0 W/m² | - |
| 1777247966 | 13.89° C | 46% | 1021.6 hPa | 0 mm | - | 0 W/m² | - |
| 1777247661 | 13.89° C | 46% | 1021.7 hPa | 0 mm | - | 0 W/m² | - |
| 1777247359 | 14.44° C | 46% | 1021.5 hPa | 0 mm | - | 0 W/m² | - |
| 1777247057 | 14.44° C | 45% | 1021.4 hPa | 0 mm | - | 1 W/m² | - |
| 1777246753 | 14.44° C | 45% | 1021.4 hPa | 0 mm | - | 1 W/m² | - |
| 1777246449 | 15° C | 44% | 1021.3 hPa | 0 mm | - | 2 W/m² | - |
| 1777246146 | 15° C | 44% | 1021.1 hPa | 0 mm | - | 4 W/m² | - |
| 1777245844 | 15.56° C | 43% | 1021.1 hPa | 0 mm | - | 5 W/m² | - |
| 1777245541 | 15.56° C | 43% | 1021.1 hPa | 0 mm | - | 7 W/m² | - |
| 1777245237 | 16.11° C | 43% | 1021.1 hPa | 0 mm | - | 9 W/m² | - |
| 1777244933 | 16.11° C | 42% | 1021.1 hPa | 0 mm | - | 11 W/m² | - |
| 1777244629 | 16.67° C | 42% | 1021 hPa | 0 mm | - | 13 W/m² | - |
| 1777244325 | 16.67° C | 41% | 1020.9 hPa | 0 mm | - | 15 W/m² | - |
| 1777244023 | 17.22° C | 40% | 1020.6 hPa | 0 mm | - | 17 W/m² | - |
| 1777243720 | 17.22° C | 40% | 1020.7 hPa | 0 mm | - | 18 W/m² | - |
| 1777243417 | 17.78° C | 39% | 1020.7 hPa | 0 mm | - | 20 W/m² | - |
| 1777243113 | 18.89° C | 37% | 1020.7 hPa | 0 mm | - | 21 W/m² | - |
| 1777242809 | 18.89° C | 36% | 1020.5 hPa | 0 mm | - | 22 W/m² | - |
* Rain latest hour (hover to see other rain measurements)
** Current wind speed in m/s (hover to see current wind gust speed)